Regional Weather Roundup
Issued by NWS

Home | Current Version | Previous Version | Graphics & Text | Print | Product List | Glossary On
Versions: 1 2 3 4 5 6 7 8 9 10 11 12 13 14 15 16 17 18 19 20 21 22 23 24 25 26 27 28 29 30 31 32 33 34 35 36 37 38 39 40 41 42 43 44 45 46 47 48 49 50
000
ASUS44 KMEG 250210
RWRTN
TENNESSEE HOURLY STATE WEATHER ROUNDUP
NATIONAL WEATHER SERVICE MEMPHIS TN
900 PM CDT WED MAY 24 2017

TNZ002-004-019-021-049-052-054-088>092-250300-
WEST TENNESSEE

CITY           SKY/WX    TMP DP  RH WIND       PRES   REMARKS
MEMPHIS INTL   PTCLDY    57  52  83 W6        29.62R
NWS MEMPHIS      N/A     56 N/A N/A MISG        N/A
JACKSON        MOCLDY    58  51  78 SW3       29.60R
DYERSBURG        N/A    N/A N/A N/A MISG        N/A
COVINGTON      CLEAR     59  52  77 W5        29.62R
UNION CITY       N/A     59  52  77 W6        29.57R
BOLIVAR        CLEAR     57  48  72 W5        29.61R
PARIS          CLOUDY    57  54  88 SW6       29.56R
HUNTINGDON     PTCLDY    57  54  88 CALM      29.57R
LEXINGTON      CLOUDY    59  50  72 MISG      29.58S
SELMER         CLOUDY    55  55 100 SW5       29.60S
SAVANNAH       CLOUDY    57  55  94 SW7       29.60S
$$

TNZ008-025-027-028-033-062-065-066-250300-
NORTH MIDDLE TENNESSEE

CITY           SKY/WX    TMP DP  RH WIND       PRES   REMARKS
NASHVILLE      DRIZZLE   60  53  77 NW3       29.57R
PORTLAND       MOCLDY    55  54  94 CALM      29.54S
CLARKSVILLE    MOCLDY    57  54  89 SW3       29.55R FOG
COOKEVILLE     PTCLDY    54  52  94 CALM      29.55S
GALLATIN       CLOUDY    57  52  82 CALM      29.58R
CROSSVILLE     PTCLDY    51  48  89 W5        29.57R
$$

TNZ061-075-076-078-094-096-097-250300-
SOUTH MIDDLE TENNESSEE

CITY           SKY/WX    TMP DP  RH WIND       PRES   REMARKS
FAYETTEVILLE   MOCLDY    55  54  94 W8        29.57R FOG
TULLAHOMA      MOCLDY    55  52  88 CALM      29.57S
WINCHESTER     CLEAR     54  54 100 CALM        N/A
COLUMBIA       MOCLDY    55  54  94 SW5       29.55R
SHELBYVILLE    CLOUDY    59  55  88 CALM      29.56R
$$

TNZ017-018-042-046-047-250300-
NORTHEAST TENNESSEE

CITY           SKY/WX    TMP DP  RH WIND       PRES   REMARKS
TRI CITIES     CLOUDY    59  58  96 CALM      29.51R
ELIZABETHTON   CLOUDY    61  59  94 CALM      29.51S
$$

TNZ012-013-036-069-073-074-250300-
CENTRAL EAST TENNESSEE

CITY           SKY/WX    TMP DP  RH WIND       PRES   REMARKS
KNOXVILLE      MOCLDY    61  51  70 W13       29.53R
OAK RIDGE      CLOUDY    60  49  66 VRB6      29.54R
DOWNTOWN KNOXV PTCLDY    61  52  72 W9        29.53R
GATLINBURG     CLOUDY    61  52  72 W8        29.52R
MORRISTOWN     PTCLDY    61  52  72 W9        29.51R
JACKSBORO      MOCLDY    59  48  67 VRB5      29.54F
$$

TNZ083-085-099-250300-
SOUTHEAST TENNESSEE

CITY           SKY/WX    TMP DP  RH WIND       PRES   REMARKS
CHATTANOOGA    PTCLDY    62  49  62 N3        29.56R
$$

SKY/WX REPORTED AS FAIR MEANS FEW OR NO CLOUDS BELOW
12 THOUSAND FEET.





USA.gov is the U.S. government's official web portal to all federal, state and local government web resources and services.